This demonstration page uses our WeatherBlox Daily Observations layout. Learn more.

Left ArrowRight Arrow

41.12389, -100.76542

Hourly Observations for March 19, 2020

Temp ( °F °C ) Dew Point ( °F °C ) Humidity (%) Winds ( mph kmh ) Pressure ( in mb ) Visibility ( mi km ) Precip ( " mm )
12:34 am 00:34 Cloudy with Mist and Fog 47 8.3 44 6.7 90 90 ESE 10 17 29.82 1010 2 2 0.00 0.00
12:46 am 00:46 Cloudy with Mist and Fog 47 8.3 45 7.2 93 93 ESE 9 15 29.81 1010 1 2 0.00 0.00
12:53 am 00:53 Cloudy with Mist and Fog 47 8.3 45 7.2 93 93 ESE 8 13 29.80 1009 1 2 0.00 0.00
1:05 am 01:05 Cloudy with Mist and Fog 47 8.3 45 7.2 93 93 E 8 13 29.80 1009 2 2 0.00 0.00
1:20 am 01:20 Cloudy with Mist and Fog 47 8.3 45 7.2 93 93 ESE 10 17 29.80 1009 2 3 0.00 0.00
1:28 am 01:28 Cloudy with Mist and Fog 47 8.3 45 7.2 93 93 ESE 10 17 29.80 1009 2 3 0.00 0.00
1:53 am 01:53 Cloudy with Mist and Fog 47 8.3 45 7.2 93 93 E 9 15 29.78 1008 2 3 0.00 0.00
2:26 am 02:26 Cloudy with Mist and Fog 46 7.8 45 7.2 96 96 ENE 6 9 29.80 1009 3 5 0.00 0.00
2:53 am 02:53 Cloudy with Light Rain 46 7.8 44 6.7 93 93 E 10 17 29.74 1007 3 5 0.01 0.25
3:28 am 03:28 Cloudy with Mist and Fog 46 7.8 44 6.7 93 93 E 13 20 29.77 1008 4 6 0.01 0.25
3:53 am 03:53 Cloudy with Mist and Fog 46 7.8 44 6.7 93 93 E 13 20 29.73 1007 5 8 0.01 0.25
4:53 am 04:53 Cloudy with Light Rain 46 7.8 43 6.1 89 89 E 14 22 29.71 1006 5 8 0.01 0.25
5:53 am 05:53 Cloudy 47 8.3 43 6.1 86 86 ENE 10 17 29.68 1005 10 16 0.01 0.25
6:13 am 06:13 Cloudy with Light Rain 47 8.3 44 6.7 90 90 ENE 12 19 29.70 1006 10 16 0.00 0.00
6:53 am 06:53 Cloudy 47 8.3 44 6.7 90 90 ENE 9 15 29.69 1005 10 16 0.00 0.00
7:10 am 07:10 Cloudy 46 7.8 44 6.7 93 93 NE 12 19 29.70 1006 10 16 0.00 0.00
7:16 am 07:16 Cloudy 46 7.8 43 6.1 89 89 NE 13 20 29.70 1006 10 16 0.00 0.00
7:29 am 07:29 Cloudy 46 7.8 43 6.1 89 89 NE 14 22 29.70 1006 10 16 0.00 0.00
7:53 am 07:53 Cloudy 46 7.8 43 6.1 89 89 ENE 13 20 29.68 1005 10 16 0.00 0.00
8:49 am 08:49 Cloudy with Light Rain 45 7 43 6 93 93 NE 17 28 29.70 1006 3 5 0.01 0.25
8:53 am 08:53 Cloudy with Light Rain 45 7.2 42 5.6 90 90 NE 15 24 29.67 1005 3 4 0.01 0.25
9:13 am 09:13 Cloudy with Light Rain 44 6.7 42 5.6 93 93 NE 18 30 29.70 1006 3 5 0.00 0.00
9:39 am 09:39 Cloudy with Light Rain 45 7.2 42 5.6 90 90 ENE 17 28 29.69 1006 3 4 0.00 0.00
9:51 am 09:51 Cloudy with Light Rain 45 7 43 6 93 93 NE 20 31 29.70 1006 2 3 0.01 0.25
9:53 am 09:53 Cloudy with Light Rain 44 6.7 41 5 89 89 NE 18 30 29.67 1005 2 3 0.01 0.25
10:22 am 10:22 Cloudy with Light Rain 44 6.7 41 5 89 89 ENE 20 31 29.70 1006 3 5 0.01 0.25
10:53 am 10:53 Cloudy with Light Rain 44 6.7 41 5 89 89 ENE 20 31 29.68 1005 6 10 0.02 0.51
11:36 am 11:36 Cloudy with Light Rain 45 7.2 42 5.6 90 90 ENE 22 35 29.69 1006 6 10 0.02 0.51
11:43 am 11:43 Cloudy with Light Rain 45 7.2 42 5.6 90 90 ENE 18 30 29.69 1006 7 11 0.02 0.51
11:53 am 11:53 Cloudy with Light Rain 45 7.2 42 5.6 90 90 ENE 20 31 29.68 1005 5 8 0.04 1.02
12:53 pm 12:53 Cloudy with Light Rain 45 7.2 41 5 86 86 ENE 20 31 29.69 1005 7 11 0.02 0.51
1:22 pm 13:22 Cloudy with Light Rain 45 7.2 41 5 86 86 ENE 24 39 29.70 1006 4 6 0.01 0.25
1:53 pm 13:53 Cloudy with Light Rain 45 7.2 41 5 86 86 ENE 28 44 29.69 1005 4 6 0.01 0.25
2:15 pm 14:15 Cloudy with Light Rain 43 6.1 39 3.9 86 86 NE 28 44 29.71 1006 5 8 0.01 0.25
2:53 pm 14:53 Cloudy with Light Rain 42 5.6 37 2.8 82 82 NE 36 57 29.70 1006 10 16 0.01 0.25
3:53 pm 15:53 Cloudy 38 3.3 32 0 79 79 NE 33 54 29.75 1007 10 16 0.00 0.00
4:53 pm 16:53 Cloudy 35 1.7 29 -1.7 78 78 NNE 39 63 29.78 1009 10 16 0.00 0.00
5:01 pm 17:01 Cloudy 35 1.7 30 -1.1 82 82 NNE 35 56 29.84 1011 10 16 0.00 0.00
5:29 pm 17:29 Cloudy 34 1.1 28 -2.2 79 79 NNE 36 57 29.88 1012 10 16 0.00 0.00
5:37 pm 17:37 Cloudy 34 1.1 28 -2.2 79 79 NNE 36 57 29.89 1012 10 16 0.00 0.00
5:53 pm 17:53 Cloudy 33 0.6 26 -3.3 75 75 NE 30 48 29.86 1011 10 16 0.00 0.00
6:53 pm 18:53 Cloudy with Light Wintry Mix 30 -1.1 24 -4.4 79 79 NNE 23 37 29.97 1015 10 16 0.00 0.00
7:06 pm 19:06 Cloudy with Light Wintry Mix 29 -1.7 23 -5 78 78 NNE 23 37 30.07 1018 10 16 0.00 0.00
7:53 pm 19:53 Cloudy 27 -2.8 20 -6.7 75 75 NNE 28 44 30.08 1019 10 16 0.00 0.00
8:53 pm 20:53 Cloudy 26 -3.3 19 -7.2 75 75 NNE 24 39 30.16 1021 10 16 0.00 0.00
9:53 pm 21:53 Cloudy 26 -3.3 18 -7.8 71 71 N 23 37 30.25 1024 10 16 0.00 0.00
10:36 pm 22:36 Windy with Snow Likely 25 -3.9 18 -7.8 75 75 N 28 44 30.38 1029 3 4 0.00 0.00
10:43 pm 22:43 Windy with Snow Likely 24 -4.4 19 -7.2 81 81 N 24 39 30.39 1029 2 3 0.00 0.00
10:53 pm 22:53 Windy with Snow Likely 24 -4.4 18 -7.8 77 77 N 24 39 30.29 1026 3 4 0.00 0.00
11:02 pm 23:02 Windy with Snow Likely 24 -4.4 18 -7.8 77 77 N 22 35 30.40 1029 3 5 0.00 0.00
11:19 pm 23:19 Windy with Snow Likely 24 -4.4 18 -7.8 77 77 N 25 41 30.41 1030 6 10 0.00 0.00
11:34 pm 23:34 Cloudy with Light Snow 24 -4.4 18 -7.8 77 77 NNE 18 30 30.42 1030 4 6 0.01 0.25
11:53 pm 23:53 Windy with Snow Likely 24 -4.4 17 -8.3 75 75 NNE 28 44 30.33 1027 9 14 0.01 0.25

Powered by AerisWeather